DLH1192 EGLL-EDDH

Flight info

Callsign DLH1192
Flight time 1h 23m
Altitude 33000
Route BPK Q295 SOMVA DCT MAVAS DCT GASTU DCT OSTOR/N0421F230 T904 RIBSO RIBSO3P
Aircraft A320/M-SDE3FGHIRWY/LB1

Departure

Time 2026-05-03 20:56
Airport London Heathrow Airport (EGLL)

Arrival

Time 2026-05-03 22:20
Airport Hamburg Helmut Schmidt Airport (EDDH)
Time Latitude Longitude Altitude Speed Heading
2026-05-03 20:15 51.46830 -0.44916 90 ft 0 kts 353°
2026-05-03 20:44 51.46824 -0.44915 86 ft 4 kts 355°
2026-05-03 20:44 51.46797 -0.44915 88 ft 4 kts 12°
2026-05-03 20:44 51.46772 -0.44929 89 ft 4 kts 36°
2026-05-03 20:44 51.46755 -0.44959 88 ft 4 kts 71°
2026-05-03 20:45 51.46752 -0.44979 87 ft 0 kts 89°
2026-05-03 20:50 51.46752 -0.44968 88 ft 3 kts 90°
2026-05-03 20:50 51.46752 -0.44913 87 ft 10 kts 89°
2026-05-03 20:50 51.46753 -0.44764 86 ft 15 kts 89°
2026-05-03 20:51 51.46752 -0.44638 86 ft 1 kts 90°
2026-05-03 20:51 51.46752 -0.44599 86 ft 9 kts 90°
2026-05-03 20:51 51.46753 -0.44448 86 ft 14 kts 89°
2026-05-03 20:51 51.46753 -0.44307 86 ft 11 kts 90°
2026-05-03 20:52 51.46754 -0.44229 86 ft 0 kts 89°
2026-05-03 20:53 51.46754 -0.44199 88 ft 6 kts 90°
2026-05-03 20:54 51.46753 -0.44142 86 ft 5 kts 92°
2026-05-03 20:54 51.46627 -0.44051 86 ft 16 kts 180°
2026-05-03 20:54 51.46532 -0.44053 89 ft 5 kts 180°
2026-05-03 20:55 51.46497 -0.44085 86 ft 8 kts 242°
2026-05-03 20:55 51.46494 -0.44133 86 ft 0 kts 270°
2026-05-03 20:55 51.46494 -0.44236 86 ft 37 kts 270°
2026-05-03 20:56 51.46488 -0.45053 88 ft 106 kts 270°
2026-05-03 20:56 51.46483 -0.46542 91 ft 159 kts 268°
2026-05-03 20:56 51.46457 -0.48358 647 ft 158 kts 268°
2026-05-03 20:56 51.46445 -0.50145 1257 ft 163 kts 275°
2026-05-03 20:57 51.46807 -0.51959 1614 ft 183 kts 298°
2026-05-03 20:57 51.47463 -0.53819 1978 ft 202 kts 299°
2026-05-03 20:57 51.48190 -0.55935 2276 ft 230 kts 297°
2026-05-03 20:57 51.48952 -0.58324 2793 ft 250 kts 296°
2026-05-03 20:58 51.49742 -0.60933 3408 ft 265 kts 296°
2026-05-03 20:58 51.50649 -0.63498 4384 ft 266 kts 310°
2026-05-03 20:58 51.52197 -0.65132 5187 ft 274 kts 344°
2026-05-03 20:58 51.54108 -0.65480 5834 ft 281 kts
2026-05-03 20:59 51.55979 -0.64761 5956 ft 278 kts 31°
2026-05-03 20:59 51.57404 -0.62697 6035 ft 279 kts 53°
2026-05-03 20:59 51.58449 -0.60091 5997 ft 276 kts 58°
2026-05-03 20:59 51.59534 -0.57538 5977 ft 276 kts 54°
2026-05-03 21:00 51.60690 -0.55083 5967 ft 275 kts 52°
2026-05-03 21:00 51.61091 -0.54263 5959 ft 276 kts 52°
2026-05-03 21:00 51.62904 -0.50078 5970 ft 274 kts 63°
2026-05-03 21:00 51.63773 -0.47331 6018 ft 275 kts 64°
2026-05-03 21:01 51.64599 -0.44558 6017 ft 275 kts 66°
2026-05-03 21:01 51.65410 -0.41763 6009 ft 275 kts 65°
2026-05-03 21:01 51.66253 -0.38998 6037 ft 275 kts 64°
2026-05-03 21:01 51.67118 -0.36223 6587 ft 278 kts 64°
2026-05-03 21:02 51.67993 -0.33427 7456 ft 281 kts 64°
2026-05-03 21:02 51.68877 -0.30591 8277 ft 285 kts 64°
2026-05-03 21:02 51.69773 -0.27700 9090 ft 290 kts 64°
2026-05-03 21:02 51.70676 -0.24762 9872 ft 295 kts 65°
2026-05-03 21:03 51.71599 -0.21737 10339 ft 311 kts 65°
2026-05-03 21:03 51.72590 -0.18485 10556 ft 334 kts 65°
2026-05-03 21:03 51.73650 -0.14998 10718 ft 357 kts 65°
2026-05-03 21:03 51.74659 -0.11231 11034 ft 372 kts 73°
2026-05-03 21:04 51.75267 -0.07155 11632 ft 376 kts 83°
2026-05-03 21:04 51.75620 -0.02953 12269 ft 380 kts 84°
2026-05-03 21:04 51.75975 0.01294 12879 ft 384 kts 84°
2026-05-03 21:04 51.76335 0.05592 13523 ft 389 kts 84°
2026-05-03 21:05 51.76698 0.09954 14104 ft 393 kts 84°
2026-05-03 21:05 51.77061 0.14347 14658 ft 397 kts 84°
2026-05-03 21:05 51.77422 0.18774 14863 ft 398 kts 84°
2026-05-03 21:05 51.77781 0.23206 14917 ft 398 kts 84°
2026-05-03 21:06 51.78137 0.27635 14921 ft 398 kts 84°
2026-05-03 21:06 51.78495 0.32086 15178 ft 402 kts 84°
2026-05-03 21:06 51.78855 0.36569 15823 ft 404 kts 84°
2026-05-03 21:06 51.78994 0.38297 16058 ft 405 kts 84°
2026-05-03 21:07 51.79278 0.41845 16522 ft 407 kts 84°
2026-05-03 21:07 51.79643 0.46405 17100 ft 411 kts 84°
2026-05-03 21:07 51.80007 0.50991 17675 ft 414 kts 84°
2026-05-03 21:07 51.80373 0.55630 18248 ft 417 kts 84°
2026-05-03 21:08 51.80739 0.60294 18743 ft 420 kts 84°
2026-05-03 21:08 51.81256 0.64960 19195 ft 425 kts 77°
2026-05-03 21:08 51.82226 0.69510 19650 ft 430 kts 69°
2026-05-03 21:08 51.83393 0.73990 20102 ft 434 kts 68°
2026-05-03 21:09 51.84568 0.78507 20534 ft 437 kts 69°
2026-05-03 21:09 51.85749 0.83056 20954 ft 441 kts 69°
2026-05-03 21:09 51.86939 0.87653 21369 ft 444 kts 69°
2026-05-03 21:09 51.88002 0.91773 21732 ft 447 kts 69°
2026-05-03 21:11 51.88197 0.92532 21796 ft 447 kts 69°
2026-05-03 21:11 51.89802 0.98783 22315 ft 451 kts 69°
2026-05-03 21:11 51.91009 1.03503 22683 ft 455 kts 69°
2026-05-03 21:11 51.92150 1.07969 23032 ft 458 kts 69°
2026-05-03 21:12 51.92736 1.10267 23197 ft 459 kts 69°
2026-05-03 21:12 51.93854 1.14646 23520 ft 462 kts 69°
2026-05-03 21:13 51.95080 1.19461 23837 ft 465 kts 69°
2026-05-03 21:13 51.96317 1.24321 24144 ft 467 kts 69°
2026-05-03 21:13 51.97552 1.29193 24457 ft 469 kts 69°
2026-05-03 21:13 51.98792 1.34099 24764 ft 471 kts 70°
2026-05-03 21:14 52.00034 1.39030 25063 ft 473 kts 70°
2026-05-03 21:14 52.01277 1.43982 25361 ft 474 kts 70°
2026-05-03 21:14 52.02522 1.48948 25629 ft 476 kts 70°
2026-05-03 21:14 52.03773 1.53946 25913 ft 478 kts 70°
2026-05-03 21:15 52.05028 1.58958 26150 ft 481 kts 70°
2026-05-03 21:15 52.06288 1.63997 26389 ft 483 kts 70°
2026-05-03 21:15 52.07554 1.69075 26630 ft 485 kts 70°
2026-05-03 21:15 52.08820 1.74169 26879 ft 487 kts 70°
2026-05-03 21:16 52.10085 1.79277 27113 ft 488 kts 70°
2026-05-03 21:16 52.11355 1.84420 27345 ft 490 kts 70°
2026-05-03 21:16 52.12620 1.89564 27574 ft 491 kts 70°
2026-05-03 21:16 52.13887 1.94733 27887 ft 490 kts 71°
2026-05-03 21:17 52.15147 1.99886 28185 ft 490 kts 71°
2026-05-03 21:17 52.16407 2.05043 28490 ft 490 kts 71°
2026-05-03 21:17 52.17664 2.10198 28799 ft 490 kts 71°
2026-05-03 21:17 52.18920 2.15360 29113 ft 489 kts 71°
2026-05-03 21:18 52.20174 2.20510 29433 ft 489 kts 71°
2026-05-03 21:18 52.21429 2.25664 29753 ft 488 kts 71°
2026-05-03 21:18 52.22677 2.30810 30061 ft 488 kts 71°
2026-05-03 21:18 52.23920 2.35958 30328 ft 488 kts 71°
2026-05-03 21:19 52.25161 2.41115 30618 ft 487 kts 71°
2026-05-03 21:19 52.26395 2.46266 30898 ft 486 kts 71°
2026-05-03 21:19 52.27625 2.51397 31141 ft 486 kts 71°
2026-05-03 21:19 52.28856 2.56540 31405 ft 486 kts 71°
2026-05-03 21:20 52.30081 2.61672 31692 ft 485 kts 71°
2026-05-03 21:20 52.31172 2.66860 31968 ft 482 kts 77°
2026-05-03 21:20 52.32100 2.72121 32254 ft 481 kts 77°
2026-05-03 21:20 52.33025 2.77373 32553 ft 480 kts 77°
2026-05-03 21:21 52.33946 2.82614 32829 ft 479 kts 77°
2026-05-03 21:21 52.34866 2.87853 32917 ft 481 kts 77°
2026-05-03 21:21 52.36706 2.98388 32898 ft 482 kts 77°
2026-05-03 21:22 52.38540 3.08983 32924 ft 485 kts 77°
2026-05-03 21:22 52.40659 3.19498 32920 ft 489 kts 67°
2026-05-03 21:23 52.43515 3.29543 32923 ft 489 kts 67°
2026-05-03 21:23 52.46380 3.39743 32923 ft 489 kts 68°
2026-05-03 21:24 52.49215 3.49867 32911 ft 489 kts 67°
2026-05-03 21:24 52.52031 3.59956 32910 ft 489 kts 67°
2026-05-03 21:25 52.54855 3.70130 32909 ft 490 kts 68°
2026-05-03 21:25 52.57666 3.80327 32914 ft 490 kts 68°
2026-05-03 21:26 52.60475 3.90557 32915 ft 491 kts 68°
2026-05-03 21:26 52.63282 4.00795 32898 ft 491 kts 68°
2026-05-03 21:27 52.66083 4.11046 32905 ft 492 kts 68°
2026-05-03 21:27 52.68878 4.21343 32909 ft 492 kts 68°
2026-05-03 21:28 52.71661 4.31658 32919 ft 493 kts 68°
2026-05-03 21:28 52.74449 4.41996 32922 ft 493 kts 68°
2026-05-03 21:29 52.77215 4.52341 32923 ft 493 kts 68°
2026-05-03 21:29 52.79971 4.62706 32921 ft 493 kts 68°
2026-05-03 21:30 52.82722 4.73084 32942 ft 493 kts 68°
2026-05-03 21:30 52.85473 4.83480 32944 ft 493 kts 68°
2026-05-03 21:31 52.88214 4.93884 32948 ft 493 kts 68°
2026-05-03 21:31 52.90936 5.04298 32964 ft 493 kts 68°
2026-05-03 21:32 52.93650 5.14713 32938 ft 492 kts 68°
2026-05-03 21:32 52.96354 5.25138 32938 ft 492 kts 68°
2026-05-03 21:33 52.99048 5.35570 32933 ft 492 kts 69°
2026-05-03 21:33 53.00352 5.40653 32930 ft 492 kts 69°
2026-05-03 21:35 53.02182 5.47799 32929 ft 492 kts 69°
2026-05-03 21:36 53.04862 5.58264 32927 ft 492 kts 69°
2026-05-03 21:36 53.07528 5.68728 32926 ft 491 kts 69°
2026-05-03 21:37 53.10177 5.79210 32929 ft 491 kts 69°
2026-05-03 21:37 53.12817 5.89685 32952 ft 491 kts 69°
2026-05-03 21:38 53.15450 6.00165 32950 ft 490 kts 69°
2026-05-03 21:38 53.18068 6.10650 32943 ft 490 kts 69°
2026-05-03 21:39 53.20681 6.21151 32912 ft 490 kts 69°
2026-05-03 21:39 53.23277 6.31669 32908 ft 490 kts 69°
2026-05-03 21:40 53.25867 6.42208 32907 ft 491 kts 70°
2026-05-03 21:40 53.28454 6.52775 32911 ft 491 kts 70°
2026-05-03 21:41 53.31034 6.63349 32917 ft 491 kts 70°
2026-05-03 21:41 53.33601 6.73942 32889 ft 492 kts 70°
2026-05-03 21:42 53.36171 6.84578 32891 ft 494 kts 70°
2026-05-03 21:42 53.38738 6.95269 32898 ft 495 kts 70°
2026-05-03 21:43 53.41293 7.05986 32900 ft 496 kts 70°
2026-05-03 21:43 53.43848 7.16730 32904 ft 496 kts 70°
2026-05-03 21:44 53.46398 7.27501 32886 ft 496 kts 71°
2026-05-03 21:44 53.48939 7.38276 32905 ft 497 kts 71°
2026-05-03 21:45 53.51473 7.49086 32918 ft 497 kts 71°
2026-05-03 21:45 53.53999 7.59911 32914 ft 498 kts 71°
2026-05-03 21:46 53.56509 7.70753 32920 ft 498 kts 72°
2026-05-03 21:46 53.59018 7.81633 32890 ft 498 kts 72°
2026-05-03 21:47 53.61510 7.92497 32908 ft 497 kts 72°
2026-05-03 21:47 53.63957 8.03355 32904 ft 487 kts 74°
2026-05-03 21:48 53.65034 8.08589 32803 ft 471 kts 76°
2026-05-03 21:48 53.66025 8.13770 32576 ft 459 kts 77°
2026-05-03 21:48 53.66956 8.18874 32153 ft 453 kts 77°
2026-05-03 21:48 53.67865 8.23930 31670 ft 448 kts 77°
2026-05-03 21:49 53.68770 8.28920 30885 ft 443 kts 77°
2026-05-03 21:49 53.69682 8.33853 30072 ft 439 kts 76°
2026-05-03 21:49 53.70304 8.37164 29447 ft 436 kts 77°
2026-05-03 21:49 53.71520 8.43567 28345 ft 429 kts 77°
2026-05-03 21:50 53.72134 8.46798 27797 ft 425 kts 76°
2026-05-03 21:50 53.73316 8.53036 26781 ft 418 kts 76°
2026-05-03 21:50 53.74190 8.57686 26029 ft 413 kts 76°
2026-05-03 21:50 53.75049 8.62284 25301 ft 408 kts 77°
2026-05-03 21:51 53.75619 8.65356 24807 ft 404 kts 77°
2026-05-03 21:51 53.76455 8.69866 24096 ft 400 kts 76°
2026-05-03 21:51 53.77280 8.74324 23391 ft 395 kts 76°
2026-05-03 21:51 53.78092 8.78724 22585 ft 390 kts 76°
2026-05-03 21:52 53.78893 8.83085 21831 ft 385 kts 76°
2026-05-03 21:52 53.79681 8.87386 21102 ft 381 kts 76°
2026-05-03 21:52 53.80461 8.91649 20373 ft 376 kts 76°
2026-05-03 21:52 53.81233 8.95874 19643 ft 374 kts 76°
2026-05-03 21:53 53.81997 9.00061 18955 ft 371 kts 76°
2026-05-03 21:53 53.82563 9.04266 18314 ft 363 kts 86°
2026-05-03 21:53 53.82718 9.08484 17605 ft 356 kts 95°
2026-05-03 21:53 53.82524 9.12615 16898 ft 350 kts 100°
2026-05-03 21:54 53.82282 9.16703 16223 ft 346 kts 99°
2026-05-03 21:54 53.82052 9.20694 15584 ft 343 kts 99°
2026-05-03 21:54 53.81828 9.24619 15360 ft 325 kts 99°
2026-05-03 21:54 53.81619 9.28317 15228 ft 307 kts 99°
2026-05-03 21:55 53.81418 9.31819 15026 ft 293 kts 100°
2026-05-03 21:55 53.81164 9.35202 14683 ft 285 kts 111°
2026-05-03 21:55 53.80354 9.38147 14224 ft 270 kts 134°
2026-05-03 21:55 53.79023 9.40254 13746 ft 258 kts 155°
2026-05-03 21:56 53.77404 9.41359 13207 ft 247 kts 175°
2026-05-03 21:56 53.75724 9.41445 12665 ft 239 kts 194°
2026-05-03 21:56 53.74170 9.40606 12114 ft 232 kts 212°
2026-05-03 21:56 53.72893 9.38997 11586 ft 228 kts 229°
2026-05-03 21:57 53.71998 9.36811 11058 ft 226 kts 246°
2026-05-03 21:57 53.71574 9.34282 10896 ft 227 kts 263°
2026-05-03 21:57 53.71551 9.31595 10889 ft 230 kts 270°
2026-05-03 21:57 53.71666 9.28889 10892 ft 232 kts 272°
2026-05-03 21:58 53.71822 9.26169 10892 ft 232 kts 273°
2026-05-03 21:58 53.72216 9.23529 10889 ft 236 kts 293°
2026-05-03 21:58 53.73198 9.21273 10893 ft 243 kts 312°
2026-05-03 21:58 53.74609 9.19636 10890 ft 251 kts 331°
2026-05-03 21:59 53.76315 9.18862 10891 ft 259 kts 351°
2026-05-03 21:59 53.78132 9.19166 10892 ft 267 kts 14°
2026-05-03 21:59 53.79791 9.20625 10889 ft 273 kts 38°
2026-05-03 21:59 53.81017 9.23081 10888 ft 276 kts 63°
2026-05-03 22:00 53.81594 9.26149 10889 ft 274 kts 87°
2026-05-03 22:00 53.81586 9.29364 10890 ft 273 kts 96°
2026-05-03 22:00 53.81443 9.32587 10856 ft 284 kts 98°
2026-05-03 22:00 53.81393 9.36118 10603 ft 310 kts 88°
2026-05-03 22:01 53.81678 9.39763 10359 ft 315 kts 80°
2026-05-03 22:01 53.82144 9.43390 10117 ft 315 kts 77°
2026-05-03 22:01 53.82669 9.46983 9866 ft 314 kts 77°
2026-05-03 22:01 53.83188 9.50548 9716 ft 312 kts 77°
2026-05-03 22:02 53.83682 9.54125 9590 ft 312 kts 78°
2026-05-03 22:02 53.84148 9.57710 9466 ft 311 kts 79°
2026-05-03 22:02 53.84594 9.61292 9316 ft 311 kts 79°
2026-05-03 22:02 53.85031 9.64865 9199 ft 310 kts 79°
2026-05-03 22:03 53.85467 9.68446 9068 ft 310 kts 79°
2026-05-03 22:03 53.85889 9.72006 8948 ft 304 kts 80°
2026-05-03 22:03 53.86290 9.75455 8826 ft 293 kts 80°
2026-05-03 22:03 53.86647 9.78790 8688 ft 282 kts 86°
2026-05-03 22:04 53.86612 9.82030 8561 ft 272 kts 100°
2026-05-03 22:04 53.86381 9.85210 8434 ft 271 kts 100°
2026-05-03 22:04 53.86155 9.88385 8309 ft 271 kts 100°
2026-05-03 22:04 53.85931 9.91549 8181 ft 270 kts 99°
2026-05-03 22:05 53.85709 9.94717 8055 ft 270 kts 100°
2026-05-03 22:05 53.85486 9.97875 7929 ft 270 kts 100°
2026-05-03 22:05 53.85262 10.01020 7803 ft 269 kts 100°
2026-05-03 22:05 53.85035 10.04178 7676 ft 269 kts 100°
2026-05-03 22:06 53.84808 10.07319 7550 ft 268 kts 100°
2026-05-03 22:06 53.84583 10.10445 7427 ft 268 kts 100°
2026-05-03 22:06 53.84357 10.13577 7301 ft 268 kts 100°
2026-05-03 22:06 53.84223 10.16731 7177 ft 270 kts 88°
2026-05-03 22:07 53.84621 10.19831 7051 ft 271 kts 67°
2026-05-03 22:07 53.85566 10.22563 6884 ft 268 kts 48°
2026-05-03 22:07 53.86793 10.25005 6744 ft 285 kts 47°
2026-05-03 22:07 53.88123 10.27631 6593 ft 298 kts 47°
2026-05-03 22:08 53.89462 10.30302 6434 ft 293 kts 48°
2026-05-03 22:08 53.90732 10.32909 6287 ft 282 kts 49°
2026-05-03 22:08 53.91988 10.35536 6136 ft 289 kts 51°
2026-05-03 22:08 53.93250 10.38268 5984 ft 298 kts 50°
2026-05-03 22:09 53.94554 10.41025 5829 ft 299 kts 50°
2026-05-03 22:09 53.95838 10.43795 5659 ft 298 kts 52°
2026-05-03 22:09 53.97060 10.46628 5471 ft 297 kts 52°
2026-05-03 22:10 53.98696 10.52889 5118 ft 294 kts 92°
2026-05-03 22:10 53.98450 10.56313 4944 ft 292 kts 104°
2026-05-03 22:10 53.97826 10.59515 4759 ft 280 kts 128°
2026-05-03 22:10 53.96513 10.61801 4580 ft 265 kts 156°
2026-05-03 22:11 53.94822 10.62682 4405 ft 250 kts 185°
2026-05-03 22:11 53.93210 10.62043 4228 ft 239 kts 213°
2026-05-03 22:11 53.91954 10.60206 4075 ft 237 kts 229°
2026-05-03 22:11 53.90860 10.58109 3974 ft 238 kts 231°
2026-05-03 22:12 53.89808 10.56011 3974 ft 226 kts 231°
2026-05-03 22:12 53.88845 10.54048 3974 ft 209 kts 233°
2026-05-03 22:12 53.87953 10.52140 3982 ft 206 kts 233°
2026-05-03 22:12 53.87062 10.50227 3981 ft 208 kts 234°
2026-05-03 22:13 53.86154 10.48297 3980 ft 210 kts 233°
2026-05-03 22:13 53.85244 10.46361 3980 ft 210 kts 233°
2026-05-03 22:13 53.84353 10.44448 3978 ft 209 kts 234°
2026-05-03 22:13 53.83451 10.42473 3979 ft 209 kts 235°
2026-05-03 22:14 53.82573 10.40502 3979 ft 210 kts 235°
2026-05-03 22:14 53.81711 10.38542 3885 ft 210 kts 235°
2026-05-03 22:14 53.80855 10.36550 3767 ft 209 kts 237°
2026-05-03 22:14 53.80016 10.34542 3621 ft 208 kts 237°
2026-05-03 22:15 53.79294 10.32456 3412 ft 204 kts 244°
2026-05-03 22:15 53.78531 10.30396 3295 ft 209 kts 234°
2026-05-03 22:15 53.77608 10.28499 3178 ft 209 kts 232°
2026-05-03 22:15 53.76674 10.26610 3081 ft 211 kts 233°
2026-05-03 22:16 53.75737 10.24697 2984 ft 211 kts 233°
2026-05-03 22:16 53.74808 10.22797 2997 ft 209 kts 233°
2026-05-03 22:16 53.73884 10.20908 2998 ft 208 kts 233°
2026-05-03 22:16 53.72958 10.19015 2889 ft 210 kts 232°
2026-05-03 22:17 53.72036 10.17132 2654 ft 205 kts 233°
2026-05-03 22:17 53.71138 10.15301 2398 ft 200 kts 233°
2026-05-03 22:17 53.70255 10.13500 2132 ft 197 kts 232°
2026-05-03 22:17 53.69386 10.11729 1869 ft 195 kts 232°
2026-05-03 22:18 53.68533 10.09993 1603 ft 185 kts 232°
2026-05-03 22:18 53.67730 10.08359 1366 ft 178 kts 232°
2026-05-03 22:18 53.66957 10.06788 1150 ft 168 kts 233°
2026-05-03 22:18 53.66236 10.05323 909 ft 157 kts 232°
2026-05-03 22:19 53.65562 10.03954 680 ft 146 kts 232°
2026-05-03 22:19 53.64941 10.02692 512 ft 135 kts 231°
2026-05-03 22:19 53.64361 10.01513 328 ft 130 kts 230°
2026-05-03 22:19 53.63781 10.00337 132 ft 130 kts 231°
2026-05-03 22:20 53.63275 9.99306 46 ft 119 kts 231°
2026-05-03 22:20 53.62876 9.98557 44 ft 35 kts 230°
2026-05-03 22:20 53.62818 9.98485 44 ft 27 kts 198°
2026-05-03 22:20 53.62734 9.98478 45 ft 10 kts 183°
2026-05-03 22:21 53.62663 9.98491 44 ft 12 kts 162°
2026-05-03 22:21 53.62586 9.98559 47 ft 12 kts 152°
2026-05-03 22:21 53.62522 9.98634 47 ft 11 kts 123°
2026-05-03 22:21 53.62524 9.98745 46 ft 9 kts 76°
2026-05-03 22:22 53.62536 9.98843 45 ft 8 kts 79°
2026-05-03 22:22 53.62546 9.98931 47 ft 7 kts 79°
2026-05-03 22:22 53.62553 9.98997 47 ft 5 kts 79°
2026-05-03 22:22 53.62616 9.99010 46 ft 0 kts 62°
2026-05-03 22:24 53.62617 9.99011 47 ft 0 kts 62°
2026-05-03 22:24 53.62618 9.99015 47 ft 0 kts 62°
2026-05-03 22:24 53.62619 9.99019 47 ft 0 kts 62°